Flag for Australia Weather past 2 weeks in Mudgee, New South Wales, Australia

Now
33 °F

Chilly.


Feels Like: 33 °F
Forecast: 32 / 63 °F
Wind: No wind

Location: Mudgee Aws

Current Time: Sep 2, 2015 at 6:32:54 AM

Latest Report: Sep 2, 2015 at 5:00 AM


Visibility: N/A

Pressure: 30.04 "Hg

Humidity: 98%

Dew point: 32 °F

Location of MudgeeLocation

Historic Weather in Mudgee — Graph

°F

Mudgee temperature yesterday

Maximum temperature yesterday: 58 °F (at 3:00 PM)
Minimum temperature yesterday: 31 °F (at 6:00 AM)
Average temperature yesterday: 45 °F

Past Weeks' High & Low Weather Summary

 TemperatureHumidityPressure
High71 °F (Aug 22, 3:00 PM)100% (Aug 24, 12:00 AM)30.38 "Hg (Aug 24, 12:00 AM)
Low29 °F (Aug 19, 5:00 AM)38% (Aug 19, 3:00 PM)29.91 "Hg (Aug 24, 6:00 PM)
Average48 °F84%30.16 "Hg
* Reported Aug 18 5:00 AM — Sep 2 5:00 AM, Mudgee, Weather by CustomWeather, © 2015

Note: Actual official high and low records may vary slightly from our data, if they occured in-between our weather recording intervals... More about our weather records

Advertising

Mudgee weather history for previous 24 hours

 ConditionsComfort  
Time TempWeatherWind HumidityBarometerVisibility
5:00 AM
Wed, Sep 2
33 °FChilly.No wind98%30.04 "HgN/A
3:00 AM34 °FOvercast.2 mph98%30.04 "HgN/A
2:00 AM34 °FChilly.No wind98%30.06 "HgN/A
12:00 AM36 °FPassing clouds.No wind97%30.05 "HgN/A
11:00 PM
Tue, Sep 1
37 °FChilly.2 mph97%30.04 "HgN/A
9:00 PM39 °FChilly.5 mph92%30.03 "HgN/A
8:00 PM47 °FCool.5 mph71%30.02 "HgN/A
6:00 PM50 °FCool.8 mph60%29.98 "HgN/A
5:00 PM57 °FRefreshingly cool.9 mph48%29.98 "HgN/A
3:00 PM58 °FRefreshingly cool.12 mph42%29.97 "HgN/A
2:00 PM58 °FRefreshingly cool.10 mph41%29.98 "HgN/A
12:00 PM56 °FRefreshingly cool.12 mph45%30.01 "HgN/A
11:00 AM55 °FCool.13 mph46%30.04 "HgN/A
9:00 AM47 °FCool.8 mph78%30.07 "HgN/A
8:00 AM40 °FChilly.3 mph98%30.06 "HgN/A
6:00 AM31 °FChilly.6 mph98%30.03 "HgN/A
Weather by CustomWeather, © 2015

See weather overviewHow to use our weather pages